Terug naar catalogus

STARLINK-36279

ActiefCommunicatieVLEO
NORAD 67193·PAYLOAD·🇺🇸 United States

Gelanceerd Dec 17, 2025 vanaf Vandenberg Space Force Base

Loading…

Volgende Passages (komende 24 uur)

TLE

VersSource: CelesTrak SupGP

Epoch: Sep 14, 2026, 23:14 UTC

1 67193C 25304B   26257.96854167 -.00018236  00000+0 -15282-2 0  2576
2 67193  70.0017  57.1990 0002924 270.4079 223.6126 14.98342289    13

Volg STARLINK-36279 in realtime met AllMySat

Download on the App Store